Simultaneous Nadir Overpasses (SNOs) Predictions

Prediction of SNOs between METOP-B and NOAA-19 Satellite Orbit:

Table of predicted SNOs for the next 14.0 days since TLE Epoch: 9/15/2018
Index Date (METOP-B) Time (METOP-B) Lat,Lon (METOP-B) SZA (METOP-B ) Date (NOAA-19) Time (NOAA-19) Lat,Lon (NOAA-19) SZA (NOAA-19 ) Distance(km) Time Diff (sec)
1 09/23/2018 10:56:23 -78.72,-152.80 100.90 09/23/2018 10:55:09 -78.68,-152.75 100.94 3.86 74
2 09/23/2018 11:47:03 78.70, 14.45 79.10 09/23/2018 11:46:07 78.68, 14.50 79.08 2.19 56
3 09/23/2018 12:37:45 -78.70,-178.26 100.89 09/23/2018 12:37:10 -78.68,-178.24 100.92 1.90 35
4 09/23/2018 13:28:25 78.68, -11.01 79.11 09/23/2018 13:28:08 78.68, -11.00 79.10 0.34 17
5 09/23/2018 14:19:07 -78.68, 156.29 100.89 09/23/2018 14:19:11 -78.68, 156.28 100.89 0.27 4
6 09/23/2018 15:09:47 78.66, -36.47 79.11 09/23/2018 15:10:09 78.68, -36.49 79.13 2.01 22
7 09/23/2018 16:00:29 -78.66, 130.83 100.89 09/23/2018 16:01:12 -78.68, 130.79 100.86 2.08 43
8 09/23/2018 16:51:09 78.64, -61.92 79.11 09/23/2018 16:52:10 78.68, -61.98 79.16 4.08 61




NCC Satellite Simultaneous Nadir Overpasses (SNOs) Prediction Service
